Terminal Aerodrome Forecast
Issued by NWS Jackson, KY

Home | Current Version | Previous Version | Text Only | Print | Product List | Glossary On
Versions: 1 2 3 4 5 6 7 8 9 10 11 12 13 14 15 16 17 18 19 20 21 22 23 24 25 26 27 28 29
000
FTUS43 KJKL 030000 AAB
TAFJKL
TAF AMD
KJKL 030059Z 0301/0324 00000KT P6SM SCT003 OVC150
      TEMPO 0301/0305 3SM BR BKN001
     FM030500 00000KT 1SM BR BKN002
     FM031300 00000KT 4SM HZ OVC007
     FM031400 00000KT P6SM OVC015
     FM031500 00000KT P6SM OVC050=

USA.gov is the U.S. government's official web portal to all federal, state and local government web resources and services.